Вернуться в каталог

FENGYUN 1C DEB

АктивенSSO
NORAD 30604·DEBRIS·🇨🇳 China

Запущен May 10, 1999 с Taiyuan Satellite Launch Center

Loading…

Ближайшие Пролёты (ближайшие 24 часа)

TLE

СвежийSource: Space-Track

Эпоха: Sep 14, 2026, 20:50 UTC

1 30604U 99025AMK 26257.86819742  .00000364  00000-0  14324-3 0  9995
2 30604  98.3743 285.2295 0207354 277.8993 262.5417 14.24032646 17375

Отслеживайте FENGYUN 1C DEB в реальном времени с AllMySat

Download on the App Store